Weather History for Jacksonville, FL

Change the Weather History Date:

Saturday, March 9, 2013

  Actual Average Record
Temperature  
Mean Temperature 52 °F 60 °F  
Max Temperature 67 °F 72 °F 88 °F (1974)
Min Temperature 36 °F 49 °F 27 °F (1996)
Degree Days  
Heating Degree Days 13 6  
Month to date heating degree days 139 59  
Since 1 July heating degree days 1032 1192  
Cooling Degree Days 0 2  
Month to date cooling degree days 0 10  
Year to date cooling degree days 76 39  
Growing Degree Days 1 (Base 50)    
Moisture  
Dew Point 42 °F    
Average Humidity 72    
Maximum Humidity 100    
Minimum Humidity 44    
Precipitation  
Precipitation 0.00 in 0.13 in 4.87 in (1973)
Month to date precipitation 0.06 1.25  
Year to date precipitation 5.78 7.74  
Snow  
Snow 0.00 in 0.00 in 0.00 in (2002)
Month to date snowfall 0.0 0.0  
Since 1 July snowfall 0.0 T  
Snow Depth 0.00 in    
Sea Level Pressure  
Sea Level Pressure 30.25 in    
Wind  
Wind Speed 5 mph (ENE)    
Max Wind Speed 16 mph    
Max Gust Speed 22 mph    
Visibility 9 miles    
Events      
T = Trace of Precipitation, MM = Missing Value Source: NWS Daily Summary

Daily Weather History Graph

Daily Weather History Graph

Search for Another Location

Airport:

Trip Planner

Search our weather history database for the weather conditions in past years. The results will help you decide how hot, cold, wet, or windy it might be!

Date:

Astronomy

Mar. 09, 2013 Rise Set
Actual Time 6:43 AM EST 6:31 PM EST
Civil Twilight 6:19 AM EST 6:55 PM EST
Nautical Twilight 5:51 AM EST 7:23 PM EST
Astronomical Twilight 5:23 AM EST 7:51 PM EST
Moon 4:59 AM EST (3/9) 4:37 PM EST (3/9)
Length of Visible Light 12h 35m
Length of Day
11h 47m
Waning Crescent, 5% of the Moon is Illuminated
Mar 9
Waning Crescent
Mar 11
New
Mar 19
First Quarter
Mar 27
Full
Apr 3
Last Quarter

Hourly Weather History & Observations

Time (EST) Temp. Windchill Dew Point Humidity Pressure Visibility Wind Dir Wind Speed Gust Speed Precip Events Conditions
12:56 AM 41.0 °F - 39.0 °F 93% 30.24 in 6.0 mi Calm Calm - N/A   Partly Cloudy
1:56 AM 39.0 °F - 37.9 °F 96% 30.24 in 6.0 mi Calm Calm - N/A   Partly Cloudy
2:56 AM 39.0 °F - 36.0 °F 89% 30.22 in 9.0 mi Calm Calm - N/A   Clear
3:56 AM 37.9 °F - 36.0 °F 93% 30.20 in 6.0 mi Calm Calm - N/A   Clear
4:56 AM 37.9 °F - 36.0 °F 93% 30.21 in 9.0 mi Calm Calm - N/A   Clear
5:56 AM 39.9 °F 37.8 °F 37.9 °F 93% 30.22 in 6.0 mi NNE 3.5 mph - N/A   Clear
6:56 AM 37.9 °F - 37.0 °F 97% 30.23 in 5.0 mi Calm Calm - N/A   Partly Cloudy
7:56 AM 46.0 °F - 43.0 °F 89% 30.26 in 8.0 mi Calm Calm - N/A   Partly Cloudy
8:56 AM 54.0 °F - 46.9 °F 77% 30.28 in 10.0 mi NNE 4.6 mph - N/A   Partly Cloudy
9:56 AM 62.1 °F - 46.0 °F 56% 30.29 in 10.0 mi NE 8.1 mph - N/A   Partly Cloudy
10:56 AM 64.0 °F - 43.0 °F 46% 30.30 in 10.0 mi East 11.5 mph 16.1 mph N/A   Partly Cloudy
11:56 AM 64.9 °F - 43.0 °F 45% 30.29 in 10.0 mi ESE 10.4 mph - N/A   Scattered Clouds
12:56 PM 66.0 °F - 44.1 °F 45% 30.28 in 10.0 mi East 10.4 mph 17.3 mph N/A   Mostly Cloudy
1:56 PM 64.9 °F - 46.0 °F 50% 30.26 in 10.0 mi NE 15.0 mph - N/A   Mostly Cloudy
2:56 PM 63.0 °F - 46.0 °F 54% 30.25 in 10.0 mi East 12.7 mph 18.4 mph N/A   Mostly Cloudy
3:56 PM 61.0 °F - 45.0 °F 56% 30.24 in 10.0 mi East 11.5 mph - N/A   Mostly Cloudy
4:56 PM 59.0 °F - 45.0 °F 60% 30.25 in 10.0 mi East 10.4 mph - N/A   Mostly Cloudy
5:56 PM 57.0 °F - 42.1 °F 57% 30.26 in 10.0 mi ENE 9.2 mph - N/A   Mostly Cloudy
6:56 PM 54.0 °F - 44.1 °F 69% 30.26 in 10.0 mi ENE 5.8 mph - N/A   Overcast
7:56 PM 52.0 °F - 45.0 °F 77% 30.27 in 10.0 mi NE 3.5 mph - N/A   Overcast
8:56 PM 50.0 °F - 46.0 °F 86% 30.27 in 10.0 mi Calm Calm - N/A   Overcast
9:56 PM 50.0 °F - 46.0 °F 86% 30.25 in 10.0 mi NE 5.8 mph - N/A   Scattered Clouds
10:56 PM 48.9 °F - 46.0 °F 90% 30.25 in 10.0 mi Calm Calm - N/A   Mostly Cloudy
11:56 PM 46.9 °F - 45.0 °F 93% 30.23 in 10.0 mi Calm Calm - N/A   Mostly Cloudy